Location: Hor� Par�
(10.6833°N, 12.6667°W)
Time: 23:01:56
(UTC+00:00)

Daily predictions for brighter satellites

Satellite Brightness Start Highest point End
(mag) Time Altitude Azimuth Time Altitude Azimuth Time Altitude Azimuth
Milstar 3 Cent rocket 4.3 18:29:31 10° WNW 18:49:53 87° SSW 18:58:39 10° ESE
CZ-4 R/B 3.1 18:52:53 10° E 18:54:34 12° ENE 18:56:14 10° NE
Aureole 3 Rocket 2.3 18:52:33 10° S 18:55:30 56° E 18:58:44 10° NNE
PSLV R/B 4.3 18:52:15 10° N 18:56:21 68° WNW 19:00:24 10° SSW
Cosmos 1689 Rocket 3.8 18:54:58 10° N 18:57:39 36° WNW 19:00:19 10° SSW
CORIOLIS 4.3 18:52:37 10° S 18:57:58 83° WSW 19:03:18 10° NNW
Cosmos 1850 Rocket 4.3 18:53:13 10° N 18:58:17 46° ENE 19:03:22 10° SSE
YAOGAN 1 4.3 18:57:27 10° ESE 18:59:22 13° ENE 19:01:17 10° NE
Cosmos 1992 Rocket 4.4 18:55:10 10° S 19:00:00 39° E 19:04:49 10° NNE
COSMO-SKYMED 1 3.7 18:56:20 10° N 19:00:30 48° WNW 19:04:41 10° SSW
Cosmos 1553 Rocket 4.1 18:57:25 10° S 19:03:42 58° E 19:09:55 10° NNE
GPS 2-12 Rocket1 4.3 19:03:04 10° NW 19:06:49 27° N 19:09:57 13° ENE
Cosmos 1328 4.1 19:03:10 10° N 19:07:05 70° W 19:11:01 10° S
Cosmos 1400 Rocket 3.2 19:04:08 10° S 19:08:14 72° W 19:12:21 10° N
USA 281 3.3 19:02:19 10° SSE 19:08:52 83° WSW 19:15:26 10° NNW
MOS 1 Rocket 3.8 19:04:25 10° NNE 19:09:09 45° E 19:14:06 10° S
Cosmos 1455 3.2 19:07:54 10° SSE 19:10:57 24° E 19:14:00 10° NE
Okean-O 3.5 19:09:15 10° SE 19:12:59 27° ENE 19:16:42 10° NNE
Meteor 2-8 Rocket 4.5 19:08:12 10° S 19:14:16 85° W 19:20:21 10° N
Cosmos 1825 Rocket 3.5 19:10:49 10° N 19:15:13 83° E 19:19:35 10° S
GPS 2-14 Rocket1 4.5 19:16:15 10° NW 19:19:25 21° N 19:21:25 15° NE
Atlas Centaur 2 4.4 19:16:53 10° WNW 19:24:05 30° NNW 19:31:13 10° NE
Cosmos 2369 3.6 19:24:10 10° S 19:29:52 77° ESE 19:35:35 10° NNE
Meteor 2-21 Rocket 4.4 19:24:34 10° N 19:30:43 87° W 19:36:47 10° S
Meteor 2-1 Rocket 4.1 19:27:57 10° S 19:33:31 70° E 19:38:59 10° NNE
Meteor 2-15 Rocket 4.4 19:29:25 10° S 19:35:31 67° E 19:41:36 10° NNE
Cosmos 1315 Rocket 2.6 19:31:49 10° S 19:35:41 68° E 19:39:31 10° NNE
CZ-2C R/B 3.5 19:33:03 10° SSE 19:38:32 47° ENE 19:44:05 10° N
Delta 7925 Rocket 3.5 19:35:20 10° WSW 19:41:21 70° SSE 19:43:24 36° E
Cosmos 44 Rocket 3.2 19:38:59 10° SSW 19:43:36 81° WNW 19:47:04 18° NNE
CZ-2D R/B 3.5 19:41:30 10° S 19:45:19 70° W 19:49:07 10° NNW
Meteor 2-10 Rocket 4.0 19:41:03 10° SSW 19:46:39 68° W 19:52:01 10° N
SWIFT 3.4 19:45:29 10° NW 19:49:14 29° N 19:49:22 29° NNE
Cosmos 1745 Rocket 4.4 19:44:00 10° NNE 19:49:50 39° E 19:55:42 10° SSE
SL-08 R/B 4.3 19:45:05 10° N 19:51:07 63° E 19:57:07 10° SSE
EO 1 Delta rocket 3.7 19:53:28 38° NNE 19:55:06 63° E 19:59:57 10° S
Hubble Space Telescope 2.6 19:53:05 10° NNW 19:55:11 19° N 19:55:11 19° N
Intelsat 5-2 Rocket 4.4 19:47:18 10° W 19:56:59 41° NNW 19:58:35 31° NNE
CSL-04 Rocket 4.0 19:51:44 10° SSE 19:57:41 44° NE 20:02:17 10° N
Cosmos 967 Rocket 4.4 19:55:32 10° S 20:01:53 65° ESE 20:03:53 44° NE
Helios 1A Rocket 4.1 19:59:56 10° S 20:03:52 43° WSW 20:07:48 10° NNW
H-10 deb 3.6 19:31:51 10° W 20:06:37 69° S 20:08:42 44° ESE
Cosmos 1697 Rocket 4.2 20:01:40 10° SW 20:06:40 34° WNW 20:11:41 10° N
CZ-2C R/B 2.5 20:07:14 46° NNE 20:08:53 79° ESE 20:14:10 10° S
Gbstr 26 Del rocket 4.5 20:01:43 10° NNW 20:09:10 57° NE 20:10:59 48° E
Cosmos 1386 Rocket 4.4 20:03:39 10° N 20:09:53 59° E 20:16:00 10° SSE
Cosmos 2315 Rocket 3.8 20:04:33 10° S 20:10:47 73° E 20:13:25 36° NNE
FALCON 9 R/B 3.3 20:11:05 10° WSW 20:11:38 17° WSW 20:11:38 17° WSW
CZ-3A R/B 3.4 20:11:18 10° W 20:16:04 28° NW 20:16:04 28° NW
SEDSat Delta rocket 3.7 20:16:40 10° WSW 20:23:19 89° NNW 20:23:30 85° NE
Cosmos 1980 Rocket 3.0 20:22:29 10° SW 20:27:54 47° WNW 20:30:24 29° NNW
Ariane H10+ 4.0 20:22:28 10° WSW 20:28:22 47° S 20:33:38 34° SE
CZ-4 R/B 3.7 20:26:07 10° SSW 20:29:19 23° W 20:32:27 10° NW
H-2A R/B 3.5 20:24:25 10° S 20:32:21 29° NNW 20:34:58 10° NNW
CSL-04 Debris 4.5 20:28:26 10° S 20:33:45 63° WSW 20:39:06 10° NNW
Timation 2 Rocket 4.2 20:32:51 10° NNW 20:39:38 79° WSW 20:40:01 76° SW
